St. James, MN

3:28 PM CDT on October 21, 2017 (GMT -0500)
Saint James Municipal

Weather History for KJYG - May, 2014

Change the Weather History Date:

Saturday, May 3, 2014

  Actual Average Record
Temperature  
Mean Temperature 50 °F -  
Max Temperature 62 °F 66 °F 87 °F (1959)
Min Temperature 37 °F 41 °F 21 °F (1967)
Degree Days  
Heating Degree Days 16    
Moisture  
Dew Point 34 °F    
Average Humidity 56    
Maximum Humidity 87    
Minimum Humidity 29    
Precipitation  
Precipitation 0.00 in - - ()
Sea Level Pressure  
Sea Level Pressure 29.88 in    
Wind  
Wind Speed 10 mph (WNW)    
Max Wind Speed 24 mph    
Max Gust Speed 30 mph    
Visibility 10 miles    
Events      
Averages and records for this station are not official NWS values.
T = Trace of Precipitation, MM = Missing Value Source: NWS Daily Summary

Daily Weather History Graph

Daily Weather History Graph

Search for Another Location

Airport or City:

Trip Planner

Search our weather history database for the weather conditions in past years. The results will help you decide how hot, cold, wet, or windy it might be!

Date:

Astronomy

May. 03, 2014 Rise Set
Actual Time 6:07 AM CDT 8:23 PM CDT
Civil Twilight 5:35 AM CDT 8:55 PM CDT
Nautical Twilight 4:55 AM CDT 9:35 PM CDT
Astronomical Twilight 4:11 AM CDT 10:19 PM CDT
Moon 9:35 AM CDT (5/3) No Moon Set
Length of Visible Light 15h 20m
Length of Day
14h 16m
Waxing Crescent, 20% of the Moon is Illuminated
May 3
Waxing Crescent
May 6
First Quarter
May 14
Full
May 21
Last Quarter
May 28
New

Hourly Weather History & Observations

Time (CDT) Temp. Windchill Dew Point Humidity Pressure Visibility Wind Dir Wind Speed Gust Speed Precip Events Conditions
12:15 AM 44.6 °F 39.7 °F 35.6 °F 71% 29.78 in 10.0 mi West 9.2 mph - N/A   Clear
12:35 AM 44.6 °F 39.7 °F 35.6 °F 71% 29.78 in 10.0 mi West 9.2 mph - N/A   Clear
12:55 AM 44.6 °F 38.8 °F 35.6 °F 71% 29.78 in 10.0 mi West 11.5 mph - N/A   Clear
1:15 AM 42.8 °F 37.5 °F 35.6 °F 76% 29.79 in 10.0 mi West 9.2 mph - N/A   Clear
1:35 AM 42.8 °F 37.0 °F 35.6 °F 76% 29.79 in 10.0 mi West 10.4 mph - N/A   Clear
1:55 AM 42.8 °F 37.0 °F 35.6 °F 76% 29.79 in 10.0 mi West 10.4 mph - N/A   Clear
2:14 AM 42.8 °F 37.0 °F 35.6 °F 76% 29.79 in 10.0 mi West 10.4 mph - N/A   Clear
2:35 AM 42.8 °F 37.0 °F 35.6 °F 76% 29.79 in 10.0 mi West 10.4 mph - N/A   Clear
2:54 AM 42.8 °F 37.5 °F 35.6 °F 76% 29.80 in 10.0 mi West 9.2 mph - N/A   Clear
3:15 AM 39.2 °F 33.6 °F 33.8 °F 81% 29.81 in 10.0 mi West 8.1 mph - N/A   Clear
3:35 AM 39.2 °F 34.2 °F 33.8 °F 81% 29.81 in 10.0 mi West 6.9 mph - N/A   Clear
3:55 AM 39.2 °F 33.6 °F 33.8 °F 81% 29.80 in 10.0 mi West 8.1 mph - N/A   Clear
4:15 AM 39.2 °F 33.0 °F 33.8 °F 81% 29.81 in 10.0 mi West 9.2 mph - N/A   Clear
4:35 AM 41.0 °F 34.7 °F 33.8 °F 76% 29.82 in 10.0 mi West 10.4 mph - N/A   Clear
5:15 AM 39.2 °F 35.0 °F 33.8 °F 81% 29.81 in 10.0 mi WSW 5.8 mph - N/A   Scattered Clouds
5:34 AM 39.2 °F 33.6 °F 35.6 °F 87% 29.81 in 10.0 mi WSW 8.1 mph - N/A   Mostly Cloudy
5:55 AM 39.2 °F 34.2 °F 33.8 °F 81% 29.81 in 10.0 mi WSW 6.9 mph - N/A   Mostly Cloudy
6:15 AM 37.4 °F - 33.8 °F 87% 29.82 in 10.0 mi Calm Calm - N/A   Scattered Clouds
6:35 AM 39.2 °F 35.0 °F 35.6 °F 87% 29.84 in 10.0 mi West 5.8 mph - N/A   Mostly Cloudy
6:55 AM 41.0 °F 37.1 °F 35.6 °F 81% 29.85 in 10.0 mi West 5.8 mph - N/A   Overcast
7:15 AM 42.8 °F 39.3 °F 35.6 °F 76% 29.85 in 10.0 mi West 5.8 mph - N/A   Overcast
7:35 AM 42.8 °F 40.1 °F 37.4 °F 81% 29.85 in 10.0 mi West 4.6 mph - N/A   Mostly Cloudy
7:55 AM 44.6 °F 40.7 °F 37.4 °F 76% 29.86 in 10.0 mi West 6.9 mph - N/A   Mostly Cloudy
8:14 AM 46.4 °F 42.4 °F 35.6 °F 66% 29.87 in 10.0 mi WNW 8.1 mph - N/A   Mostly Cloudy
8:35 AM 46.4 °F 41.5 °F 35.6 °F 66% 29.87 in 10.0 mi WNW 10.4 mph - N/A   Scattered Clouds
8:55 AM 46.4 °F 41.9 °F 37.4 °F 71% 29.87 in 10.0 mi WNW 9.2 mph - N/A   Scattered Clouds
9:14 AM 48.2 °F - 37.4 °F 66% 29.86 in 10.0 mi WNW 8.1 mph - N/A   Scattered Clouds
9:35 AM 51.8 °F - 37.4 °F 58% 29.86 in 10.0 mi West 8.1 mph - N/A   Scattered Clouds
9:55 AM 53.6 °F - 37.4 °F 54% 29.87 in 10.0 mi WNW 6.9 mph - N/A   Clear
10:14 AM 55.4 °F - 37.4 °F 51% 29.87 in 10.0 mi WNW 5.8 mph - N/A   Clear
10:35 AM 55.4 °F - 37.4 °F 51% 29.88 in 10.0 mi WNW 5.8 mph - N/A   Clear
10:55 AM 57.2 °F - 35.6 °F 44% 29.88 in 10.0 mi WNW 13.8 mph 18.4 mph N/A   Clear
11:14 AM 57.2 °F - 35.6 °F 44% 29.88 in 10.0 mi NW 16.1 mph - N/A   Clear
11:35 AM 57.2 °F - 35.6 °F 44% 29.88 in 10.0 mi West 12.7 mph 18.4 mph N/A   Clear
11:55 AM 59.0 °F - 37.4 °F 45% 29.88 in 10.0 mi WNW 15.0 mph 21.9 mph N/A   Scattered Clouds
12:15 PM 60.8 °F - 37.4 °F 42% 29.89 in 10.0 mi WNW 15.0 mph 26.5 mph N/A   Scattered Clouds
12:35 PM 60.8 °F - 35.6 °F 39% 29.89 in 10.0 mi WNW 20.7 mph 26.5 mph N/A   Scattered Clouds
12:54 PM 60.8 °F - 35.6 °F 39% 29.89 in 10.0 mi WNW 19.6 mph 26.5 mph N/A   Scattered Clouds
1:15 PM 62.6 °F - 33.8 °F 34% 29.88 in 10.0 mi West 18.4 mph 26.5 mph N/A   Scattered Clouds
1:35 PM 60.8 °F - 30.2 °F 31% 29.89 in 10.0 mi WNW 19.6 mph 28.8 mph N/A   Clear
1:54 PM 60.8 °F - 32.0 °F 34% 29.90 in 10.0 mi WNW 19.6 mph 28.8 mph N/A   Clear
2:15 PM 60.8 °F - 32.0 °F 34% 29.90 in 10.0 mi WNW 21.9 mph 28.8 mph N/A   Clear
2:35 PM 60.8 °F - 30.2 °F 31% 29.91 in 10.0 mi WNW 12.7 mph 21.9 mph N/A   Scattered Clouds
3:15 PM 60.8 °F - 28.4 °F 29% 29.90 in 10.0 mi NW 24.2 mph 29.9 mph N/A   Scattered Clouds
3:35 PM 62.6 °F - 30.2 °F 30% 29.91 in 10.0 mi NW 15.0 mph 27.6 mph N/A   Scattered Clouds
3:55 PM 60.8 °F - 30.2 °F 31% 29.91 in 10.0 mi NW 19.6 mph - N/A   Scattered Clouds
4:15 PM 60.8 °F - 30.2 °F 31% 29.91 in 10.0 mi NNW 16.1 mph 24.2 mph N/A   Scattered Clouds
4:35 PM 60.8 °F - 30.2 °F 31% 29.91 in 10.0 mi NNW 17.3 mph 23.0 mph N/A   Scattered Clouds
4:55 PM 60.8 °F - 28.4 °F 29% 29.91 in 10.0 mi WNW 13.8 mph 19.6 mph N/A   Scattered Clouds
5:15 PM 60.8 °F - 28.4 °F 29% 29.91 in 10.0 mi WNW 11.5 mph 20.7 mph N/A   Scattered Clouds
5:35 PM 60.8 °F - 28.4 °F 29% 29.91 in 10.0 mi WNW 13.8 mph 19.6 mph N/A   Scattered Clouds
5:55 PM 60.8 °F - 28.4 °F 29% 29.92 in 10.0 mi NW 12.7 mph - N/A   Mostly Cloudy
6:15 PM 59.0 °F - 30.2 °F 34% 29.92 in 10.0 mi NW 9.2 mph - N/A   Mostly Cloudy
6:35 PM 59.0 °F - 30.2 °F 34% 29.92 in 10.0 mi NNW 9.2 mph - N/A   Mostly Cloudy
6:54 PM 59.0 °F - 30.2 °F 34% 29.92 in 10.0 mi NW 9.2 mph - N/A   Overcast
7:15 PM 57.2 °F - 30.2 °F 36% 29.93 in 10.0 mi NW 11.5 mph - N/A   Overcast
7:35 PM 57.2 °F - 32.0 °F 38% 29.93 in 10.0 mi NW 10.4 mph - N/A   Overcast
7:55 PM 55.4 °F - 33.8 °F 44% 29.93 in 10.0 mi NW 6.9 mph - N/A   Overcast
8:15 PM 55.4 °F - 33.8 °F 44% 29.94 in 10.0 mi NNW 9.2 mph - N/A   Overcast
8:34 PM 53.6 °F - 35.6 °F 51% 29.94 in 10.0 mi NNW 5.8 mph - N/A   Overcast
8:55 PM 53.6 °F - 35.6 °F 51% 29.95 in 10.0 mi NW 5.8 mph - N/A   Overcast
9:15 PM 53.6 °F - 37.4 °F 54% 29.96 in 10.0 mi NW 5.8 mph - N/A   Overcast
9:35 PM 53.6 °F - 35.6 °F 51% 29.97 in 10.0 mi NW 8.1 mph - N/A   Overcast
9:55 PM 51.8 °F - 37.4 °F 58% 29.98 in 10.0 mi NW 6.9 mph - N/A   Overcast
10:15 PM 51.8 °F - 37.4 °F 58% 29.99 in 10.0 mi NW 8.1 mph - N/A   Overcast
10:35 PM 51.8 °F - 35.6 °F 54% 29.99 in 10.0 mi NW 9.2 mph - N/A   Overcast
10:55 PM 51.8 °F - 35.6 °F 54% 29.99 in 10.0 mi NW 8.1 mph - N/A   Overcast
11:15 PM 48.2 °F - 35.6 °F 62% 29.99 in 10.0 mi NW 5.8 mph - N/A   Overcast
11:34 PM 46.4 °F 43.5 °F 35.6 °F 66% 29.99 in 10.0 mi WNW 5.8 mph - N/A   Mostly Cloudy
11:55 PM 44.6 °F 42.2 °F 35.6 °F 71% 30.00 in 10.0 mi WNW 4.6 mph - N/A   Clear